Wind_Speed
67 67 66 66 65 65 64 63 62 62 61 60 60 59 59 57 54 51 48 46 44 42 40 38 36 35 34 34 32 30 27 24 22 24 22 21 23 25 26 27 26 23 23
74 73 71 70 69 69 69 69 69 67 66 65 64 63 62 61 59 57 53 51 48 46 44 42 40 37 35 34 33 30 28 25 22 22 22 21 22 24 27 29 28 27 26
69 66 62 60 59 60 62 66 69 71 72 71 69 68 66 65 63 60 58 55 53 50 48 44 42 39 36 35 33 31 29 26 23 22 22 21 21 23 25 28 29 28 28
58 55 52 50 49 48 48 51 56 63 69 73 74 72 71 69 66 63 60 57 55 52 49 46 42 41 39 37 34 31 29 27 24 22 22 20 20 21 23 25 27 27 27
53 51 49 47 45 43 42 40 41 45 53 61 68 72 74 73 71 68 64 61 57 53 50 47 43 41 40 38 36 33 30 27 25 23 22 20 18 18 21 23 25 25 26
55 53 51 48 46 43 40 37 36 35 37 41 47 55 64 69 72 72 69 65 61 56 52 48 45 43 42 40 38 35 31 27 24 23 22 20 18 17 19 21 22 23 24
58 56 53 51 48 46 43 41 38 35 33 32 33 36 43 53 62 68 71 69 66 61 55 50 47 44 43 42 40 37 32 28 24 23 22 19 17 16 16 18 19 21 21
58 56 55 53 51 49 47 44 41 38 36 33 31 30 31 35 42 51 60 66 67 64 60 54 50 47 44 43 42 39 35 29 25 23 21 18 16 15 15 17 18 19 20
57 54 52 52 51 50 48 46 44 42 39 36 35 34 32 31 32 37 43 53 60 63 62 58 54 51 46 44 43 41 37 32 26 23 20 17 15 15 15 16 17 18 19
50 48 47 47 47 48 47 46 45 44 42 39 36 35 34 32 31 31 32 38 47 56 60 59 56 54 49 45 44 42 39 34 28 23 19 16 14 14 14 15 15 15 17
44 42 41 42 43 44 45 43 43 43 42 40 38 36 35 33 31 30 29 30 36 46 55 57 56 54 52 47 45 44 42 37 30 24 20 16 14 13 13 14 14 14 16
37 35 35 35 37 38 40 40 40 40 40 39 37 36 34 33 32 30 27 24 27 39 50 54 54 52 51 49 46 46 44 39 32 25 20 17 15 14 14 14 14 14 15
31 28 26 27 29 31 32 34 35 37 38 37 35 34 33 32 31 30 27 24 20 31 46 52 54 50 49 48 47 46 44 40 33 28 23 19 16 14 14 14 14 14 15
30 26 22 20 21 23 26 27 29 31 33 34 34 33 32 31 30 29 27 23 21 24 41 49 54 52 49 48 47 45 43 39 34 29 25 21 17 15 15 15 15 15 16
29 25 20 16 14 15 17 20 22 25 28 30 31 31 31 31 30 29 27 24 22 22 33 46 51 53 50 48 46 44 42 38 33 29 26 22 19 17 17 17 17 18 19
32 25 18 13 9 9 11 14 17 20 24 26 29 30 31 31 31 29 27 25 23 22 27 40 48 50 50 47 45 44 40 35 32 30 27 24 21 20 20 20 20 20 21
37 28 20 12 6 5 6 10 13 16 20 23 26 28 30 31 31 30 28 27 25 24 26 36 46 49 50 47 46 43 39 34 32 30 28 26 23 23 22 23 23 23 24
41 34 26 18 10 4 1 6 10 13 16 19 22 25 27 29 30 30 29 27 26 25 28 34 44 47 50 47 44 43 39 36 33 31 28 26 25 25 25 25 25 25 24
43 39 33 27 21 15 10 7 7 10 13 16 19 22 24 26 27 27 27 26 26 26 28 32 40 45 47 46 43 40 38 35 34 32 29 28 27 27 27 27 27 26 25
40 38 35 32 29 25 21 16 12 10 11 13 15 18 21 22 24 25 25 24 25 26 27 30 37 44 44 42 41 39 37 35 33 32 30 30 29 29 28 28 28 26 25
37 36 34 31 29 27 24 21 17 14 11 10 11 14 16 18 20 21 22 23 24 25 27 30 35 42 41 39 38 37 35 34 33 32 32 31 30 30 30 29 28 26 25
34 34 32 29 27 26 24 21 19 16 13 11 10 11 13 15 17 19 21 24 26 27 30 32 36 39 38 36 36 36 35 34 34 33 32 31 31 31 30 28 27 26 25
32 30 29 28 27 26 25 24 22 21 19 18 18 17 17 18 20 22 25 27 28 30 32 35 37 38 38 37 37 35 35 34 33 32 32 31 31 30 28 27 26 25 25
34 29 27 26 26 26 26 26 26 27 26 26 26 26 26 27 27 27 28 29 30 32 34 35 36 36 36 35 34 34 34 33 33 33 32 31 29 27 26 25 24 23 23
34 31 28 26 26 26 27 28 28 28 29 29 29 30 31 31 31 30 30 30 30 31 32 33 33 33 32 31 31 31 32 32 31 30 28 26 25 24 23 22 21 21 22
31 30 28 26 25 25 26 27 28 28 28 28 28 29 29 29 29 29 29 28 28 28 28 28 28 29 29 30 29 29 29 28 26 25 23 22 21 20 19 19 19 21 22
Wind_Direction
293 289 286 282 278 275 272 269 266 263 261 258 256 255 254 252 250 248 248 251 254 257 258 260 263 266 267 268 270 272 275 278 284 288 287 273 259 250 245 245 242 238 235
294 291 288 285 281 276 271 267 263 261 259 256 255 254 253 252 250 248 247 247 250 253 256 258 259 263 263 263 265 268 271 273 278 284 284 275 261 251 244 241 239 236 236
294 293 291 289 286 281 275 269 263 258 256 254 253 252 252 251 251 249 247 245 246 248 251 254 255 256 258 259 259 263 265 267 272 279 282 277 263 251 243 240 238 236 236
293 292 291 290 289 287 283 275 266 259 254 252 250 250 250 250 249 248 246 245 244 245 247 249 250 250 252 253 254 257 259 262 265 273 278 277 267 253 244 240 237 236 238
292 291 290 289 288 287 286 284 277 266 258 252 249 247 247 247 247 247 245 243 243 243 243 244 246 246 246 248 250 251 254 257 260 267 273 275 269 257 248 242 239 238 240
290 288 286 284 281 280 280 278 276 272 265 258 252 248 246 245 245 246 245 243 241 241 241 241 242 243 243 243 245 247 248 253 257 262 268 271 267 258 249 244 243 241 243
287 284 282 278 275 273 272 272 270 267 264 261 257 253 250 247 245 244 244 243 240 239 238 237 237 238 239 240 240 242 245 249 254 258 263 268 265 257 250 247 244 244 244
285 281 278 275 271 269 267 266 265 263 260 258 256 256 255 252 248 246 244 242 239 237 235 234 233 234 237 237 237 239 242 246 250 255 258 261 261 258 251 245 243 243 246
286 280 276 273 269 266 263 261 259 258 257 255 253 254 255 256 254 249 246 241 237 234 232 230 231 231 234 235 234 236 238 241 246 252 254 255 256 254 248 242 243 248 249
291 283 275 270 267 264 261 258 255 254 253 252 250 250 250 252 253 251 250 244 236 230 226 225 226 229 231 233 233 233 234 236 242 247 249 250 250 246 242 239 240 246 250
297 287 278 271 266 262 258 255 252 250 249 248 247 247 246 245 245 247 248 247 236 225 218 215 218 223 228 230 231 230 229 232 236 241 243 245 244 240 237 237 238 243 245
305 294 283 274 267 262 258 253 250 247 245 243 243 242 240 239 238 240 242 240 234 219 209 206 208 215 221 226 228 227 226 227 230 235 237 240 241 239 237 237 238 243 243
317 307 292 279 269 261 257 252 247 244 241 239 237 235 234 232 231 233 234 232 231 213 201 199 199 204 212 218 221 221 221 221 225 230 234 237 239 240 238 235 234 234 232
331 321 305 289 275 264 254 248 243 239 235 232 230 228 226 224 224 226 226 225 223 212 200 194 193 196 204 211 214 216 216 217 220 225 230 234 236 235 231 227 224 218 211
339 330 320 302 284 266 251 241 235 230 227 225 222 220 218 217 217 218 219 219 218 214 205 197 192 194 199 205 209 211 212 213 216 222 227 230 229 225 221 217 212 206 203
353 344 334 316 292 266 244 231 224 219 217 216 214 213 213 212 212 214 216 217 216 215 209 202 196 194 197 202 205 208 209 210 213 217 222 223 220 217 215 211 207 204 203
11 8 1 349 323 281 238 220 212 210 209 207 207 208 208 209 210 212 213 214 216 217 212 204 198 195 194 200 203 205 206 207 210 214 218 217 213 211 209 206 204 203 204
21 23 25 25 23 18 205 197 197 197 199 202 203 203 204 205 207 209 210 212 215 217 213 206 200 195 193 195 199 201 202 204 207 211 212 210 206 205 203 202 202 204 206
27 31 36 42 46 55 73 110 152 174 184 188 192 194 196 199 203 205 207 211 216 216 212 209 202 195 191 190 194 196 198 200 203 206 205 203 201 201 201 201 203 206 209
29 34 40 46 53 59 66 79 96 121 149 167 179 186 191 196 201 204 206 210 211 209 208 205 200 192 186 185 189 192 194 197 198 198 198 198 199 199 200 202 204 207 211
29 34 40 45 50 56 62 71 80 93 111 135 159 176 187 194 198 200 201 200 196 194 193 189 185 184 181 181 186 189 191 192 193 193 194 195 197 197 200 203 207 211 216
27 32 37 42 46 51 57 63 71 79 92 107 127 149 166 176 180 182 180 178 174 172 172 173 174 175 176 178 181 185 187 188 189 190 192 193 195 196 199 203 209 215 222
31 34 38 43 48 53 57 62 68 75 84 93 102 114 127 137 145 148 149 149 151 153 157 161 164 168 172 175 179 181 183 184 185 187 188 189 192 196 201 207 213 221 229
35 40 45 50 55 59 65 71 77 81 86 92 97 103 110 115 121 126 130 135 140 144 149 155 160 165 170 173 175 176 177 178 179 180 183 187 193 199 206 212 219 226 235
37 42 50 58 64 70 75 80 85 88 91 95 99 103 106 109 113 118 123 129 135 141 147 153 158 162 164 167 168 170 172 174 175 178 183 189 197 204 211 219 226 235 243
38 44 52 61 70 78 83 85 86 88 90 95 100 103 106 109 112 115 119 125 131 137 143 148 152 156 159 160 162 165 169 172 176 182 189 197 205 213 221 230 239 247 253
Height
5710 5707 5705 5702 5700 5699 5699 5699 5701 5703 5706 5708 5711 5713 5716 5720 5724 5728 5732 5734 5736 5739 5742 5745 5748 5750 5751 5752 5754 5755 5756 5757 5756 5753 5751 5751 5750 5751 5753 5754 5757 5760 5762
5684 5680 5676 5674 5673 5672 5672 5673 5675 5678 5681 5685 5689 5693 5696 5700 5705 5711 5716 5720 5723 5726 5730 5733 5737 5740 5742 5743 5745 5747 5748 5750 5749 5747 5745 5744 5744 5744 5746 5748 5751 5754 5757
5661 5656 5652 5648 5645 5643 5643 5644 5647 5650 5655 5659 5665 5670 5674 5679 5685 5692 5698 5704 5709 5713 5717 5721 5725 5729 5732 5734 5737 5738 5740 5742 5742 5741 5739 5738 5737 5738 5739 5742 5744 5747 5750
5643 5638 5634 5630 5626 5623 5620 5619 5620 5622 5626 5632 5638 5644 5651 5657 5663 5671 5678 5686 5692 5698 5703 5708 5712 5717 5721 5725 5727 5730 5732 5734 5735 5735 5733 5732 5732 5732 5733 5735 5738 5741 5744
5628 5623 5619 5614 5611 5608 5605 5603 5601 5601 5602 5606 5611 5618 5626 5633 5641 5648 5657 5666 5675 5682 5689 5694 5700 5704 5709 5714 5717 5720 5723 5726 5727 5728 5728 5727 5726 5726 5728 5729 5732 5734 5737
5611 5607 5603 5599 5596 5594 5592 5590 5589 5588 5587 5588 5590 5595 5602 5610 5618 5626 5635 5646 5656 5665 5674 5681 5687 5692 5697 5703 5707 5711 5715 5718 5720 5721 5722 5721 5721 5721 5722 5724 5726 5728 5731
5592 5587 5584 5581 5579 5578 5577 5577 5577 5577 5577 5577 5578 5580 5583 5589 5596 5604 5613 5624 5636 5647 5657 5666 5673 5679 5685 5691 5697 5701 5706 5710 5713 5714 5715 5715 5715 5716 5717 5718 5720 5722 5724
5569 5565 5562 5560 5560 5560 5560 5561 5562 5563 5565 5566 5567 5569 5571 5575 5578 5584 5592 5602 5615 5628 5640 5650 5659 5666 5673 5680 5686 5691 5697 5702 5705 5708 5709 5709 5709 5710 5711 5713 5715 5716 5718
5545 5541 5540 5538 5539 5540 5541 5544 5546 5548 5551 5554 5556 5559 5561 5564 5566 5570 5575 5584 5595 5608 5621 5634 5644 5653 5661 5668 5675 5681 5687 5693 5697 5701 5702 5703 5703 5704 5706 5708 5710 5711 5712
5520 5517 5516 5516 5517 5519 5522 5525 5529 5532 5536 5540 5544 5547 5550 5554 5556 5560 5564 5570 5579 5590 5604 5617 5629 5639 5648 5656 5664 5671 5678 5684 5690 5693 5695 5696 5698 5699 5701 5703 5705 5706 5708
5500 5497 5495 5496 5497 5499 5503 5507 5512 5516 5521 5526 5531 5536 5540 5544 5547 5551 5555 5559 5564 5573 5586 5601 5614 5625 5635 5644 5652 5660 5668 5676 5682 5686 5688 5690 5692 5694 5696 5698 5700 5702 5704
5485 5481 5479 5478 5479 5482 5486 5491 5496 5501 5507 5513 5518 5524 5529 5534 5539 5543 5548 5552 5555 5562 5573 5587 5601 5613 5623 5632 5641 5649 5658 5667 5673 5678 5682 5684 5686 5688 5691 5693 5695 5697 5699
5475 5470 5466 5465 5466 5468 5471 5475 5481 5487 5493 5500 5507 5513 5519 5525 5530 5536 5541 5545 5549 5553 5563 5576 5589 5601 5612 5621 5630 5639 5649 5657 5665 5670 5674 5678 5680 5683 5686 5688 5691 5694 5696
5469 5463 5458 5456 5456 5457 5459 5464 5469 5475 5481 5489 5496 5503 5510 5517 5523 5529 5535 5540 5544 5548 5555 5565 5578 5590 5601 5611 5620 5630 5639 5649 5656 5663 5667 5671 5675 5678 5681 5684 5687 5690 5693
5465 5458 5453 5450 5449 5450 5452 5455 5460 5466 5472 5479 5487 5494 5502 5509 5516 5523 5529 5534 5539 5544 5550 5558 5569 5581 5591 5601 5612 5622 5631 5640 5649 5655 5661 5666 5670 5674 5677 5680 5683 5687 5691
5462 5455 5449 5447 5446 5446 5448 5451 5455 5460 5466 5473 5480 5488 5495 5503 5510 5517 5524 5529 5534 5540 5545 5552 5561 5572 5583 5593 5604 5614 5624 5633 5641 5648 5655 5660 5665 5669 5672 5676 5680 5683 5688
5465 5456 5449 5446 5445 5445 5447 5449 5453 5458 5463 5469 5475 5482 5490 5497 5505 5512 5519 5525 5530 5535 5540 5547 5556 5566 5576 5586 5597 5608 5618 5627 5635 5642 5649 5655 5660 5664 5668 5672 5676 5680 5684
5472 5462 5454 5450 5447 5447 5447 5450 5453 5457 5462 5467 5473 5479 5485 5493 5500 5507 5514 5520 5526 5530 5536 5542 5550 5559 5570 5581 5592 5602 5612 5621 5629 5636 5643 5650 5655 5659 5664 5668 5672 5676 5680
5483 5473 5465 5459 5455 5452 5452 5453 5455 5458 5462 5467 5472 5477 5483 5490 5496 5503 5509 5515 5520 5525 5531 5537 5545 5555 5566 5577 5587 5597 5607 5616 5624 5631 5638 5645 5650 5655 5660 5664 5668 5672 5676
5495 5486 5478 5472 5467 5463 5461 5461 5461 5463 5466 5469 5473 5478 5483 5488 5494 5499 5505 5510 5516 5521 5526 5533 5541 5553 5564 5574 5584 5594 5603 5612 5619 5627 5634 5640 5646 5652 5656 5661 5665 5668 5672
5506 5498 5491 5485 5480 5476 5473 5471 5471 5471 5472 5473 5476 5479 5483 5487 5491 5496 5501 5507 5512 5517 5524 5531 5540 5552 5563 5573 5583 5593 5601 5609 5616 5623 5630 5636 5642 5648 5653 5657 5661 5664 5667
5516 5509 5502 5496 5491 5487 5484 5481 5480 5479 5478 5478 5480 5481 5483 5486 5490 5495 5500 5505 5511 5517 5524 5533 5543 5553 5564 5574 5583 5592 5599 5607 5614 5620 5627 5633 5639 5644 5649 5654 5657 5660 5662
5525 5519 5513 5508 5502 5498 5494 5491 5488 5487 5485 5485 5485 5486 5488 5490 5493 5498 5503 5508 5515 5522 5530 5538 5547 5557 5566 5575 5583 5591 5598 5605 5612 5618 5625 5631 5636 5642 5646 5650 5653 5656 5657
5536 5530 5524 5518 5514 5509 5506 5502 5500 5498 5496 5495 5496 5496 5497 5499 5503 5507 5512 5517 5523 5530 5538 5546 5554 5562 5570 5577 5584 5591 5598 5604 5611 5617 5623 5629 5634 5639 5643 5647 5649 5651 5652
5548 5541 5535 5529 5525 5521 5518 5515 5513 5511 5509 5509 5509 5509 5510 5512 5515 5518 5523 5527 5533 5540 5546 5553 5560 5567 5573 5580 5587 5593 5600 5606 5612 5618 5624 5629 5633 5637 5640 5642 5644 5646 5646
5558 5552 5546 5541 5536 5533 5531 5528 5526 5524 5523 5522 5522 5522 5523 5525 5527 5530 5534 5538 5543 5548 5554 5559 5565 5571 5577 5584 5590 5597 5603 5608 5614 5619 5624 5628 5632 5634 5636 5638 5639 5640 5640